Time,TemperatureF,DewpointF,PressureIn,WindDirection,WindDirectionDegrees,WindSpeedMPH,WindSpeedGustMPH,Humidity,HourlyPrecipIn,Conditions,Clouds,dailyrainin,SoftwareType,DateUTC
2013-04-26 00:05:00,43.9,36.8,30.25,NW,315,0.0,-999.0,76,-99.99,,,0.00,Acu-Link.com,2013-04-26 04:05:00,
2013-04-26 00:20:00,43.2,36.8,30.25,WNW,292,0.0,-999.0,78,-99.99,,,0.00,Acu-Link.com,2013-04-26 04:20:00,
2013-04-26 00:35:00,43.0,36.9,30.26,NW,315,0.0,-999.0,79,-99.99,,,0.00,Acu-Link.com,2013-04-26 04:35:00,
2013-04-26 00:50:00,43.0,36.9,30.25,NW,315,0.0,-999.0,79,-99.99,,,0.00,Acu-Link.com,2013-04-26 04:50:00,
2013-04-26 01:05:00,42.6,36.9,30.26,WNW,292,0.0,-999.0,80,-99.99,,,0.00,Acu-Link.com,2013-04-26 05:05:00,
2013-04-26 01:21:00,42.4,36.4,30.26,NW,315,0.0,-999.0,79,-99.99,,,0.00,Acu-Link.com,2013-04-26 05:21:00,
2013-04-26 01:36:00,41.9,36.2,30.26,NNW,337,0.0,-999.0,80,-99.99,,,0.00,Acu-Link.com,2013-04-26 05:36:00,
2013-04-26 01:51:00,41.5,35.8,30.26,NW,315,0.0,-999.0,80,-99.99,,,0.00,Acu-Link.com,2013-04-26 05:51:00,
2013-04-26 02:07:00,41.2,35.8,30.26,WNW,292,0.0,-999.0,81,-99.99,,,0.00,Acu-Link.com,2013-04-26 06:07:00,
2013-04-26 02:22:00,41.0,35.6,30.26,WNW,292,0.0,-999.0,81,-99.99,,,0.00,Acu-Link.com,2013-04-26 06:22:00,
2013-04-26 02:37:00,40.8,35.4,30.26,NW,315,0.0,-999.0,81,-99.99,,,0.00,Acu-Link.com,2013-04-26 06:37:00,
2013-04-26 02:52:00,40.8,35.7,30.26,WNW,292,0.0,-999.0,82,-99.99,,,0.00,Acu-Link.com,2013-04-26 06:52:00,
2013-04-26 03:08:00,40.6,35.8,30.27,West,270,0.0,-999.0,83,-99.99,,,0.00,Acu-Link.com,2013-04-26 07:08:00,
2013-04-26 03:28:00,40.5,36.1,30.26,West,270,0.0,-999.0,84,-99.99,,,0.00,Acu-Link.com,2013-04-26 07:28:00,
2013-04-26 03:43:00,40.3,35.9,30.27,NNW,337,0.0,-999.0,84,-99.99,,,0.00,Acu-Link.com,2013-04-26 07:43:00,
2013-04-26 03:58:00,39.9,35.5,30.28,WNW,292,0.0,-999.0,84,-99.99,,,0.00,Acu-Link.com,2013-04-26 07:58:00,
2013-04-26 04:14:00,39.6,35.2,30.28,WNW,292,0.0,-999.0,84,-99.99,,,0.00,Acu-Link.com,2013-04-26 08:14:00,
2013-04-26 04:29:00,39.2,34.8,30.28,NW,315,0.0,-999.0,84,-99.99,,,0.00,Acu-Link.com,2013-04-26 08:29:00,
2013-04-26 04:44:00,38.8,34.4,30.28,NNW,337,0.0,-999.0,84,-99.99,,,0.00,Acu-Link.com,2013-04-26 08:44:00,
2013-04-26 04:59:00,38.5,34.4,30.28,West,270,0.0,-999.0,85,-99.99,,,0.00,Acu-Link.com,2013-04-26 08:59:00,
2013-04-26 05:15:00,37.9,33.8,30.28,NW,315,0.0,-999.0,85,-99.99,,,0.00,Acu-Link.com,2013-04-26 09:15:00,
2013-04-26 05:30:00,37.8,33.7,30.29,WNW,292,0.0,-999.0,85,-99.99,,,0.00,Acu-Link.com,2013-04-26 09:30:00,
2013-04-26 05:45:00,37.4,33.3,30.29,NW,315,0.0,-999.0,85,-99.99,,,0.00,Acu-Link.com,2013-04-26 09:45:00,
2013-04-26 06:00:00,37.2,33.1,30.30,NW,315,0.0,-999.0,85,-99.99,,,0.00,Acu-Link.com,2013-04-26 10:00:00,
2013-04-26 06:15:00,36.9,32.8,30.30,NNW,337,0.0,-999.0,85,-99.99,,,0.00,Acu-Link.com,2013-04-26 10:15:00,
2013-04-26 06:30:00,36.7,32.9,30.31,WNW,292,0.0,-999.0,86,-99.99,,,0.00,Acu-Link.com,2013-04-26 10:30:00,
2013-04-26 06:46:00,36.9,33.1,30.31,NW,315,0.0,-999.0,86,-99.99,,,0.00,Acu-Link.com,2013-04-26 10:46:00,
2013-04-26 07:01:00,36.9,33.4,30.33,WNW,292,0.0,-999.0,87,-99.99,,,0.00,Acu-Link.com,2013-04-26 11:01:00,
2013-04-26 07:16:00,37.0,33.5,30.33,WNW,292,0.0,-999.0,87,-99.99,,,0.00,Acu-Link.com,2013-04-26 11:16:00,
2013-04-26 07:31:00,37.6,34.1,30.34,West,270,0.0,-999.0,87,-99.99,,,0.00,Acu-Link.com,2013-04-26 11:31:00,
2013-04-26 07:46:00,38.8,35.6,30.34,West,270,0.0,-999.0,88,-99.99,,,0.00,Acu-Link.com,2013-04-26 11:46:00,
2013-04-26 08:01:00,39.7,36.4,30.35,ESE,112,0.0,-999.0,88,-99.99,,,0.00,Acu-Link.com,2013-04-26 12:01:00,
2013-04-26 08:16:00,42.6,38.7,30.35,ESE,112,0.0,-999.0,86,-99.99,,,0.00,Acu-Link.com,2013-04-26 12:16:00,
2013-04-26 08:32:00,48.2,41.7,30.35,SE,135,1.7,-999.0,78,-99.99,,,0.00,Acu-Link.com,2013-04-26 12:32:00,
2013-04-26 08:47:00,50.9,41.1,30.36,ESE,112,0.0,-999.0,69,-99.99,,,0.00,Acu-Link.com,2013-04-26 12:47:00,
2013-04-26 09:02:00,54.3,41.1,30.35,NNW,337,2.7,-999.0,61,-99.99,,,0.00,Acu-Link.com,2013-04-26 13:02:00,
2013-04-26 09:17:00,49.1,38.2,30.36,NW,315,2.2,-999.0,66,-99.99,,,0.00,Acu-Link.com,2013-04-26 13:17:00,
2013-04-26 09:32:00,49.6,37.1,30.36,West,270,2.2,-999.0,62,-99.99,,,0.00,Acu-Link.com,2013-04-26 13:32:00,
2013-04-26 09:47:00,50.9,38.4,30.37,South,180,1.1,-999.0,62,-99.99,,,0.00,Acu-Link.com,2013-04-26 13:47:00,
2013-04-26 10:02:00,51.8,37.1,30.36,South,180,1.7,-999.0,57,-99.99,,,0.00,Acu-Link.com,2013-04-26 14:02:00,
2013-04-26 10:17:00,52.5,34.4,30.37,North,0,2.2,-999.0,50,-99.99,,,0.00,Acu-Link.com,2013-04-26 14:17:00,
2013-04-26 10:32:00,53.4,32.0,30.37,NNW,337,1.1,-999.0,44,-99.99,,,0.00,Acu-Link.com,2013-04-26 14:32:00,
2013-04-26 10:48:00,53.8,34.6,30.37,West,270,0.0,-999.0,48,-99.99,,,0.00,Acu-Link.com,2013-04-26 14:48:00,
2013-04-26 11:03:00,54.0,32.6,30.36,SSW,202,1.7,-999.0,44,-99.99,,,0.00,Acu-Link.com,2013-04-26 15:03:00,
2013-04-26 11:18:00,55.8,34.2,30.37,East,90,3.7,-999.0,44,-99.99,,,0.00,Acu-Link.com,2013-04-26 15:18:00,
2013-04-26 11:33:00,55.2,33.1,30.36,SW,225,4.2,-999.0,43,-99.99,,,0.00,Acu-Link.com,2013-04-26 15:33:00,
2013-04-26 11:48:00,57.0,34.7,30.36,SW,225,1.1,-999.0,43,-99.99,,,0.00,Acu-Link.com,2013-04-26 15:48:00,
2013-04-26 12:03:00,55.4,30.2,30.37,NNE,22,1.1,-999.0,38,-99.99,,,0.00,Acu-Link.com,2013-04-26 16:03:00,
2013-04-26 12:18:00,56.3,30.4,30.36,NNE,22,1.7,-999.0,37,-99.99,,,0.00,Acu-Link.com,2013-04-26 16:18:00,
2013-04-26 12:33:00,57.2,30.5,30.36,NE,45,2.2,-999.0,36,-99.99,,,0.00,Acu-Link.com,2013-04-26 16:33:00,
2013-04-26 12:48:00,57.7,30.2,30.35,NNW,337,2.7,-999.0,35,-99.99,,,0.00,Acu-Link.com,2013-04-26 16:48:00,
2013-04-26 13:04:00,58.1,31.3,30.35,North,0,2.2,-999.0,36,-99.99,,,0.00,Acu-Link.com,2013-04-26 17:04:00,
2013-04-26 13:19:00,58.6,28.8,30.34,South,180,1.7,-999.0,32,-99.99,,,0.00,Acu-Link.com,2013-04-26 17:19:00,
2013-04-26 13:34:00,58.1,29.9,30.33,ESE,112,2.7,-999.0,34,-99.99,,,0.00,Acu-Link.com,2013-04-26 17:34:00,
2013-04-26 13:49:00,58.3,28.6,30.33,South,180,3.2,-999.0,32,-99.99,,,0.00,Acu-Link.com,2013-04-26 17:49:00,
2013-04-26 14:04:00,58.8,27.4,30.33,NW,315,2.7,-999.0,30,-99.99,,,0.00,Acu-Link.com,2013-04-26 18:04:00,
2013-04-26 14:19:00,60.8,29.2,30.33,NW,315,2.7,-999.0,30,-99.99,,,0.00,Acu-Link.com,2013-04-26 18:19:00,
2013-04-26 14:34:00,59.4,28.0,30.33,SSE,157,0.0,-999.0,30,-99.99,,,0.00,Acu-Link.com,2013-04-26 18:34:00,
2013-04-26 14:49:00,61.0,30.9,30.33,ESE,112,1.7,-999.0,32,-99.99,,,0.00,Acu-Link.com,2013-04-26 18:49:00,
2013-04-26 15:04:00,62.1,30.3,30.32,ENE,67,0.0,-999.0,30,-99.99,,,0.00,Acu-Link.com,2013-04-26 19:04:00,
2013-04-26 15:20:00,61.5,29.0,30.31,NNE,22,3.2,-999.0,29,-99.99,,,0.00,Acu-Link.com,2013-04-26 19:20:00,
2013-04-26 15:35:00,62.2,30.4,30.30,West,270,2.7,-999.0,30,-99.99,,,0.00,Acu-Link.com,2013-04-26 19:35:00,
2013-04-26 15:50:00,61.5,29.0,30.30,North,0,2.2,-999.0,29,-99.99,,,0.00,Acu-Link.com,2013-04-26 19:50:00,
2013-04-26 16:05:00,61.9,28.4,30.29,NNE,22,1.1,-999.0,28,-99.99,,,0.00,Acu-Link.com,2013-04-26 20:05:00,
2013-04-26 16:20:00,60.4,26.3,30.29,ENE,67,1.7,-999.0,27,-99.99,,,0.00,Acu-Link.com,2013-04-26 20:20:00,
2013-04-26 16:35:00,61.3,29.6,30.28,ESE,112,2.7,-999.0,30,-99.99,,,0.00,Acu-Link.com,2013-04-26 20:35:00,
2013-04-26 16:50:00,62.2,32.0,30.28,SSE,157,0.0,-999.0,32,-99.99,,,0.00,Acu-Link.com,2013-04-26 20:50:00,
2013-04-26 17:06:00,61.9,29.3,30.27,SW,225,1.7,-999.0,29,-99.99,,,0.00,Acu-Link.com,2013-04-26 21:06:00,
2013-04-26 17:21:00,61.2,31.9,30.26,WSW,247,2.2,-999.0,33,-99.99,,,0.00,Acu-Link.com,2013-04-26 21:21:00,
2013-04-26 17:36:00,60.4,28.0,30.26,West,270,0.0,-999.0,29,-99.99,,,0.00,Acu-Link.com,2013-04-26 21:36:00,
2013-04-26 17:51:00,59.7,27.4,30.26,NNW,337,0.0,-999.0,29,-99.99,,,0.00,Acu-Link.com,2013-04-26 21:51:00,
2013-04-26 18:06:00,59.2,30.9,30.26,ESE,112,1.7,-999.0,34,-99.99,,,0.00,Acu-Link.com,2013-04-26 22:06:00,
2013-04-26 18:21:00,58.8,29.0,30.26,ESE,112,0.0,-999.0,32,-99.99,,,0.00,Acu-Link.com,2013-04-26 22:21:00,
2013-04-26 18:36:00,58.5,28.8,30.26,SSE,157,1.7,-999.0,32,-99.99,,,0.00,Acu-Link.com,2013-04-26 22:36:00,
2013-04-26 18:51:00,58.1,26.8,30.26,North,0,0.0,-999.0,30,-99.99,,,0.00,Acu-Link.com,2013-04-26 22:51:00,
2013-04-26 19:06:00,57.6,28.7,30.26,North,0,0.0,-999.0,33,-99.99,,,0.00,Acu-Link.com,2013-04-26 23:06:00,
2013-04-26 19:22:00,57.2,27.6,30.26,ENE,67,0.0,-999.0,32,-99.99,,,0.00,Acu-Link.com,2013-04-26 23:22:00,
2013-04-26 19:37:00,56.8,25.7,30.27,NW,315,2.2,-999.0,30,-99.99,,,0.00,Acu-Link.com,2013-04-26 23:37:00,
2013-04-26 19:52:00,55.8,26.4,30.27,NW,315,0.0,-999.0,32,-99.99,,,0.00,Acu-Link.com,2013-04-26 23:52:00,
2013-04-26 20:07:00,55.0,25.7,30.28,NNW,337,0.0,-999.0,32,-99.99,,,0.00,Acu-Link.com,2013-04-27 00:07:00,
2013-04-26 20:22:00,54.1,27.1,30.27,WNW,292,0.0,-999.0,35,-99.99,,,0.00,Acu-Link.com,2013-04-27 00:22:00,
2013-04-26 20:37:00,53.4,27.8,30.27,NNW,337,0.0,-999.0,37,-99.99,,,0.00,Acu-Link.com,2013-04-27 00:37:00,
2013-04-26 20:52:00,52.7,27.8,30.28,NNW,337,0.0,-999.0,38,-99.99,,,0.00,Acu-Link.com,2013-04-27 00:52:00,
2013-04-26 21:07:00,52.2,28.6,30.28,NNW,337,0.0,-999.0,40,-99.99,,,0.00,Acu-Link.com,2013-04-27 01:07:00,
2013-04-26 21:22:00,51.4,29.1,30.28,NW,315,0.0,-999.0,42,-99.99,,,0.00,Acu-Link.com,2013-04-27 01:22:00,
2013-04-26 21:38:00,50.9,30.3,30.29,NNW,337,0.0,-999.0,45,-99.99,,,0.00,Acu-Link.com,2013-04-27 01:38:00,
2013-04-26 21:53:00,50.4,30.9,30.29,NNW,337,0.0,-999.0,47,-99.99,,,0.00,Acu-Link.com,2013-04-27 01:53:00,
2013-04-26 22:08:00,49.8,31.4,30.29,West,270,0.0,-999.0,49,-99.99,,,0.00,Acu-Link.com,2013-04-27 02:08:00,
2013-04-26 22:23:00,49.8,30.4,30.29,NNW,337,0.0,-999.0,47,-99.99,,,0.00,Acu-Link.com,2013-04-27 02:23:00,
2013-04-26 22:38:00,49.6,29.7,30.29,North,0,0.0,-999.0,46,-99.99,,,0.00,Acu-Link.com,2013-04-27 02:38:00,
2013-04-26 22:53:00,49.6,30.2,30.29,SE,135,0.0,-999.0,47,-99.99,,,0.00,Acu-Link.com,2013-04-27 02:53:00,
2013-04-26 23:08:00,48.7,31.9,30.29,WSW,247,0.0,-999.0,52,-99.99,,,0.00,Acu-Link.com,2013-04-27 03:08:00,
2013-04-26 23:23:00,48.2,30.4,30.29,NW,315,0.0,-999.0,50,-99.99,,,0.00,Acu-Link.com,2013-04-27 03:23:00,
2013-04-26 23:38:00,48.0,30.3,30.28,NNW,337,0.0,-999.0,50,-99.99,,,0.00,Acu-Link.com,2013-04-27 03:38:00,
2013-04-26 23:54:00,48.0,30.3,30.28,West,270,0.0,-999.0,50,-99.99,,,0.00,Acu-Link.com,2013-04-27 03:54:00,